Regional Weather Roundup
Issued by NWS

Home | Current Version | Previous Version | Graphics & Text | Print | Product List | Glossary On
Versions: 1 2 3 4 5 6 7 8 9 10 11 12 13 14 15 16 17 18 19 20 21 22 23 24 25 26 27 28 29 30 31 32 33 34 35 36 37 38 39 40 41 42 43 44 45 46 47 48 49 50
000
ASUS43 KOAX 290402
RWRNE

WEATHER ROUNDUP FOR NEBRASKA
NATIONAL WEATHER SERVICE OMAHA NE
1100 PM CDT THU MAY 28 2015

NOTES: SATELLITE DATA IS BEING USED TO AUGMENT CLOUD COVER ABOVE
       12000 FEET.
       "FAIR" INDICATES FEW OR NO CLOUDS BELOW 12,000 FEET WITH NO
       SIGNIFICANT WEATHER AND/OR OBSTRUCTIONS TO VISIBILITY.

  * THESE STATIONS DO NOT REPORT WEATHER SUCH AS RAIN...SNOW OR FOG.

NEZ001>004-019>022-054>056-290500-
NEBRASKA PANHANDLE

CITY           SKY/WX    TMP DP  RH WIND       PRES   REMARKS
SCOTTSBLUFF    CLOUDY    57  50  77 NE18      30.04F
ALLIANCE       CLOUDY    55  53  93 N7        30.03R
CHADRON        CLOUDY    55  52  89 W6        30.03R
KIMBALL          N/A    N/A N/A N/A MISG        N/A
SIDNEY         CLOUDY    56  53  90 N14       30.06R
$$

NEZ057>060-069>072-079>082-290500-
SOUTHWEST NEBRASKA

CITY           SKY/WX    TMP DP  RH WIND       PRES   REMARKS
NORTH PLATTE   LGT RAIN  57  55  93 W7        29.95R
IMPERIAL       CLOUDY    56  51  84 NW9       29.99R
LEXINGTON      CLOUDY    59  55  87 CALM      29.92S
MCCOOK         CLOUDY    56  54  93 SW5       29.93S
$$

NEZ005>010-023>029-035>040-094-290500-
NORTH CENTRAL NEBRASKA

CITY           SKY/WX    TMP DP  RH WIND       PRES   REMARKS
VALENTINE      CLOUDY    61  54  77 NW14G22   29.94S
AINSWORTH      LGT RAIN  62  57  83 W12       29.92S
BROKEN BOW     CLOUDY    60  57  89 S8        29.92F
ORD            LGT RAIN  61  56  83 NW15      29.90R
$$

NEZ041-046>049-061>064-073>077-083>087-290500-
SOUTH CENTRAL NEBRASKA

CITY           SKY/WX    TMP DP  RH WIND       PRES   REMARKS
GRAND ISLAND   CLOUDY    70  62  76 SW15      29.94R THUNDER
HASTINGS       TSTM      68  63  84 SW22G29   29.94R
KEARNEY *      CLOUDY    63  55  77 NW15      29.92F
$$

NEZ011>018-030>034-042>045-290500-
NORTHEAST NEBRASKA

CITY           SKY/WX    TMP DP  RH WIND       PRES   REMARKS
NORFOLK        CLOUDY    69  65  86 S13       29.88F
BLAIR          CLOUDY    67  63  85 SE9       29.93F
COLUMBUS *     MOCLDY    68  63  83 S7        29.92S
FREMONT        MOCLDY    68  64  88 SE9       29.92F
TEKAMAH        MOCLDY    67  64  90 SE10      29.91F
$$

NEZ050>053-065>068-078-088>093-290500-
SOUTHEAST NEBRASKA

CITY           SKY/WX    TMP DP  RH WIND       PRES   REMARKS
LINCOLN        CLOUDY    70  65  84 SE12      29.93F
OMAHA EPPLEY   CLOUDY    68  64  87 S9        29.94S
FALLS CITY     PTCLDY    66  63  90 SE10      29.97R
NEBRASKA CITY  PTCLDY    65  64  96 S9        29.96S
PLATTSMOUTH    PTCLDY    66  63  89 SE7       29.95F
$$

NEZ044-045-051>053-067-290500-
OMAHA AREA

CITY           SKY/WX    TMP DP  RH WIND       PRES   REMARKS
OMAHA EPPLEY   CLOUDY    68  64  87 S9        29.94S
BLAIR          CLOUDY    67  63  85 SE9       29.93F
FREMONT        MOCLDY    68  64  88 SE9       29.92F
PLATTSMOUTH    PTCLDY    66  63  89 SE7       29.95F
WAHOO          FAIR      66  64  91 SE8       29.92F
$$


USA.gov is the U.S. government's official web portal to all federal, state and local government web resources and services.